User: anonymous   Login
Location: Cussy
(47.0410°N, 4.6412°E)
Time: 07:53:19
(UTC+00:00)
Language:

OE (NEXTSAT) - Orbit

View from above orbital plane
View from above orbital plane
View from above satellite
View from above satellite

Ground track
Ground track

The orbit data is extracted from the following two-line orbital elements,

1 30774U 07006C   21057.86403644  .00003389  00000-0  78030-4 0  9999
2 30774  46.0009 119.2409 0006903 268.9697  91.0418 15.45068912780169
Epoch (UTC): 26 February 2021 20:44:12
Eccentricity: 0.0006903
inclination: 46.0009°
perigee height: 426 km
apogee height: 436 km
right ascension of ascending node: 119.2409°
argument of perigee: 268.9697°
revolutions per day: 15.45068912
mean anomaly at epoch: 91.0418°
orbit number at epoch: 78016

The dashed part of the orbit path shows where the satellite is in the earth's shadow,  

DLR